Year,Month,Day,Hour,Minute,Value (Times are PST for temperature in C)
2015,06,27,00,00,18.20
2015,06,27,00,01,18.10
2015,06,27,00,02,18.10
2015,06,27,00,03,18.10
2015,06,27,00,04,18.10
2015,06,27,00,05,17.90
2015,06,27,00,06,17.90
2015,06,27,00,07,17.90
2015,06,27,00,08,17.90
2015,06,27,00,09,17.90
2015,06,27,00,10,17.90
2015,06,27,00,11,17.90
2015,06,27,00,12,17.90
2015,06,27,00,13,17.80
2015,06,27,00,14,17.80
2015,06,27,00,15,17.80
2015,06,27,00,16,17.80
2015,06,27,00,17,17.80
2015,06,27,00,18,17.80
2015,06,27,00,19,17.80
2015,06,27,00,20,17.80
2015,06,27,00,21,17.70
2015,06,27,00,22,17.70
2015,06,27,00,23,17.70
2015,06,27,00,24,17.80
2015,06,27,00,25,17.80
2015,06,27,00,26,17.80
2015,06,27,00,27,17.80
2015,06,27,00,28,17.80
2015,06,27,00,29,17.80
2015,06,27,00,30,17.80
2015,06,27,00,31,17.80
2015,06,27,00,32,17.80
2015,06,27,00,33,17.80
2015,06,27,00,34,17.80
2015,06,27,00,35,17.80
2015,06,27,00,36,17.80
2015,06,27,00,37,17.80
2015,06,27,00,38,17.70
2015,06,27,00,39,17.70
2015,06,27,00,40,17.70
2015,06,27,00,41,17.70
2015,06,27,00,42,17.70
2015,06,27,00,43,17.70
2015,06,27,00,44,17.70
2015,06,27,00,45,17.70
2015,06,27,00,46,17.70
2015,06,27,00,47,17.70
2015,06,27,00,48,17.70
2015,06,27,00,49,17.70
2015,06,27,00,50,17.70
2015,06,27,00,51,17.70
2015,06,27,00,52,17.70
2015,06,27,00,53,17.70
2015,06,27,00,54,17.70
2015,06,27,00,55,17.70
2015,06,27,00,56,17.70
2015,06,27,00,57,17.70
2015,06,27,00,58,17.70
2015,06,27,00,59,17.70
2015,06,27,01,00,17.70
2015,06,27,01,01,17.70
2015,06,27,01,02,17.70
2015,06,27,01,03,17.70
2015,06,27,01,04,17.70
2015,06,27,01,05,17.70
2015,06,27,01,06,17.60
2015,06,27,01,07,17.60
2015,06,27,01,08,17.60
2015,06,27,01,09,17.60
2015,06,27,01,10,17.50
2015,06,27,01,11,17.50
2015,06,27,01,12,17.50
2015,06,27,01,13,17.50
2015,06,27,01,14,17.50
2015,06,27,01,15,17.50
2015,06,27,01,16,17.50
2015,06,27,01,17,17.50
2015,06,27,01,18,17.40
2015,06,27,01,19,17.40
2015,06,27,01,20,17.40
2015,06,27,01,21,17.40
2015,06,27,01,22,17.40
2015,06,27,01,23,17.30
2015,06,27,01,24,17.30
2015,06,27,01,25,17.30
2015,06,27,01,26,17.30
2015,06,27,01,27,17.30
2015,06,27,01,28,17.30
2015,06,27,01,29,17.30
2015,06,27,01,30,17.30
2015,06,27,01,31,17.20
2015,06,27,01,32,17.20
2015,06,27,01,33,17.10
2015,06,27,01,34,17.10
2015,06,27,01,35,17.10
2015,06,27,01,36,17.00
2015,06,27,01,37,17.00
2015,06,27,01,38,16.90
2015,06,27,01,39,16.80
2015,06,27,01,40,16.80
2015,06,27,01,41,16.70
2015,06,27,01,42,16.70
2015,06,27,01,43,16.60
2015,06,27,01,44,16.50
2015,06,27,01,45,16.40
2015,06,27,01,46,16.40
2015,06,27,01,47,16.40
2015,06,27,01,48,16.30
2015,06,27,01,49,16.30
2015,06,27,01,50,16.20
2015,06,27,01,51,16.20
2015,06,27,01,52,16.10
2015,06,27,01,53,16.10
2015,06,27,01,54,16.10
2015,06,27,01,55,16.00
2015,06,27,01,56,15.90
2015,06,27,01,57,15.90
2015,06,27,01,58,15.80
2015,06,27,01,59,15.80
2015,06,27,02,00,15.80
2015,06,27,02,01,15.80
2015,06,27,02,02,15.70
2015,06,27,02,03,15.70
2015,06,27,02,04,15.60
2015,06,27,02,05,15.60
2015,06,27,02,06,15.60
2015,06,27,02,07,15.50
2015,06,27,02,08,15.50
2015,06,27,02,09,15.50
2015,06,27,02,10,15.50
2015,06,27,02,11,15.40
2015,06,27,02,12,15.40
2015,06,27,02,13,15.40
2015,06,27,02,14,15.40
2015,06,27,02,15,15.40
2015,06,27,02,16,15.40
2015,06,27,02,17,15.40
2015,06,27,02,18,15.40
2015,06,27,02,19,15.40
2015,06,27,02,20,15.40
2015,06,27,02,21,15.40
2015,06,27,02,22,15.30
2015,06,27,02,23,15.40
2015,06,27,02,24,15.40
2015,06,27,02,25,15.40
2015,06,27,02,26,15.40
2015,06,27,02,27,15.40
2015,06,27,02,28,15.40
2015,06,27,02,29,15.40
2015,06,27,02,30,15.30
2015,06,27,02,31,15.30
2015,06,27,02,32,15.30
2015,06,27,02,33,15.30
2015,06,27,02,34,15.30
2015,06,27,02,35,15.20
2015,06,27,02,36,15.20
2015,06,27,02,37,15.10
2015,06,27,02,38,15.10
2015,06,27,02,39,15.00
2015,06,27,02,40,15.00
2015,06,27,02,41,15.00
2015,06,27,02,42,15.00
2015,06,27,02,43,14.90
2015,06,27,02,44,14.90
2015,06,27,02,45,14.90
2015,06,27,02,46,14.90
2015,06,27,02,47,14.90
2015,06,27,02,48,14.90
2015,06,27,02,49,14.90
2015,06,27,02,50,14.90
2015,06,27,02,51,14.90
2015,06,27,02,52,14.90
2015,06,27,02,53,14.80
2015,06,27,02,54,14.80
2015,06,27,02,55,14.80
2015,06,27,02,56,14.80
2015,06,27,02,57,14.80
2015,06,27,02,58,14.80
2015,06,27,02,59,14.80
2015,06,27,03,00,14.80
2015,06,27,03,01,14.80
2015,06,27,03,02,14.80
2015,06,27,03,03,14.80
2015,06,27,03,04,14.80
2015,06,27,03,05,14.80
2015,06,27,03,06,14.80
2015,06,27,03,07,14.80
2015,06,27,03,08,14.70
2015,06,27,03,09,14.70
2015,06,27,03,10,14.70
2015,06,27,03,11,14.70
2015,06,27,03,12,14.70
2015,06,27,03,13,14.70
2015,06,27,03,14,14.70
2015,06,27,03,15,14.70
2015,06,27,03,16,14.70
2015,06,27,03,17,14.70
2015,06,27,03,18,14.70
2015,06,27,03,19,14.70
2015,06,27,03,20,14.70
2015,06,27,03,21,14.70
2015,06,27,03,22,14.70
2015,06,27,03,23,14.70
2015,06,27,03,24,14.70
2015,06,27,03,25,14.70
2015,06,27,03,26,14.70
2015,06,27,03,27,14.70
2015,06,27,03,28,14.70
2015,06,27,03,29,14.70
2015,06,27,03,30,14.70
2015,06,27,03,31,14.70
2015,06,27,03,32,14.70
2015,06,27,03,33,14.70
2015,06,27,03,34,14.70
2015,06,27,03,35,14.70
2015,06,27,03,36,14.70
2015,06,27,03,37,14.70
2015,06,27,03,38,14.70
2015,06,27,03,39,14.60
2015,06,27,03,40,14.60
2015,06,27,03,41,14.60
2015,06,27,03,42,14.60
2015,06,27,03,43,14.60
2015,06,27,03,44,14.60
2015,06,27,03,45,14.60
2015,06,27,03,46,14.60
2015,06,27,03,47,14.50
2015,06,27,03,48,14.50
2015,06,27,03,49,14.50
2015,06,27,03,50,14.50
2015,06,27,03,51,14.50
2015,06,27,03,52,14.50
2015,06,27,03,53,14.50
2015,06,27,03,54,14.50
2015,06,27,03,55,14.50
2015,06,27,03,56,14.50
2015,06,27,03,57,14.50
2015,06,27,03,58,14.50
2015,06,27,03,59,14.50
2015,06,27,04,00,14.50
2015,06,27,04,01,14.50
2015,06,27,04,02,14.50
2015,06,27,04,03,14.50
2015,06,27,04,04,14.40
2015,06,27,04,05,14.40
2015,06,27,04,06,14.40
2015,06,27,04,07,14.40
2015,06,27,04,08,14.40
2015,06,27,04,09,14.40
2015,06,27,04,10,14.40
2015,06,27,04,11,14.40
2015,06,27,04,12,14.40
2015,06,27,04,13,14.30
2015,06,27,04,14,14.30
2015,06,27,04,15,14.30
2015,06,27,04,16,14.30
2015,06,27,04,17,14.30
2015,06,27,04,18,14.30
2015,06,27,04,19,14.20
2015,06,27,04,20,14.20
2015,06,27,04,21,14.20
2015,06,27,04,22,14.20
2015,06,27,04,23,14.20
2015,06,27,04,24,14.20
2015,06,27,04,25,14.10
2015,06,27,04,26,14.10
2015,06,27,04,27,14.10
2015,06,27,04,28,14.00
2015,06,27,04,29,14.00
2015,06,27,04,30,14.00
2015,06,27,04,31,14.00
2015,06,27,04,32,13.90
2015,06,27,04,33,13.90
2015,06,27,04,34,13.90
2015,06,27,04,35,13.90
2015,06,27,04,36,13.80
2015,06,27,04,37,13.80
2015,06,27,04,38,13.80
2015,06,27,04,39,13.80
2015,06,27,04,40,13.80
2015,06,27,04,41,13.70
2015,06,27,04,42,13.70
2015,06,27,04,43,13.70
2015,06,27,04,44,13.70
2015,06,27,04,45,13.70
2015,06,27,04,46,13.70
2015,06,27,04,47,13.70
2015,06,27,04,48,13.70
2015,06,27,04,49,13.70
2015,06,27,04,50,13.70
2015,06,27,04,51,13.70
2015,06,27,04,52,13.70
2015,06,27,04,53,13.70
2015,06,27,04,54,13.70
2015,06,27,04,55,13.70
2015,06,27,04,56,13.70
2015,06,27,04,57,13.70
2015,06,27,04,58,13.70
2015,06,27,04,59,13.60
2015,06,27,05,00,13.60
2015,06,27,05,01,13.60
2015,06,27,05,02,13.60
2015,06,27,05,03,13.60
2015,06,27,05,04,13.60
2015,06,27,05,05,13.60
2015,06,27,05,06,13.60
2015,06,27,05,07,13.60
2015,06,27,05,08,13.60
2015,06,27,05,09,13.60
2015,06,27,05,10,13.60
2015,06,27,05,11,13.60
2015,06,27,05,12,13.60
2015,06,27,05,13,13.60
2015,06,27,05,14,13.50
2015,06,27,05,15,13.50
2015,06,27,05,16,13.50
2015,06,27,05,17,13.50
2015,06,27,05,18,13.50
2015,06,27,05,19,13.50
2015,06,27,05,20,13.50
2015,06,27,05,21,13.50
2015,06,27,05,22,13.50
2015,06,27,05,23,13.50
2015,06,27,05,24,13.50
2015,06,27,05,25,13.50
2015,06,27,05,26,13.50
2015,06,27,05,27,13.50
2015,06,27,05,28,13.50
2015,06,27,05,29,13.50
2015,06,27,05,30,13.50
2015,06,27,05,31,13.50
2015,06,27,05,32,13.50
2015,06,27,05,33,13.50
2015,06,27,05,34,13.50
2015,06,27,05,35,13.50
2015,06,27,05,36,13.50
2015,06,27,05,37,13.50
2015,06,27,05,38,13.50
2015,06,27,05,39,13.50
2015,06,27,05,40,13.50
2015,06,27,05,41,13.50
2015,06,27,05,42,13.50
2015,06,27,05,43,13.50
2015,06,27,05,44,13.50
2015,06,27,05,45,13.50
2015,06,27,05,46,13.50
2015,06,27,05,47,13.60
2015,06,27,05,48,13.60
2015,06,27,05,49,13.60
2015,06,27,05,50,13.60
2015,06,27,05,51,13.60
2015,06,27,05,52,13.60
2015,06,27,05,53,13.60
2015,06,27,05,54,13.60
2015,06,27,05,55,13.70
2015,06,27,05,56,13.70
2015,06,27,05,57,13.70
2015,06,27,05,58,13.70
2015,06,27,05,59,13.70
2015,06,27,06,00,13.70
2015,06,27,06,01,13.70
2015,06,27,06,02,13.70
2015,06,27,06,03,13.70
2015,06,27,06,04,13.70
2015,06,27,06,05,13.70
2015,06,27,06,06,13.70
2015,06,27,06,07,13.70
2015,06,27,06,08,13.70
2015,06,27,06,09,13.70
2015,06,27,06,10,13.70
2015,06,27,06,11,13.70
2015,06,27,06,12,13.70
2015,06,27,06,13,13.70
2015,06,27,06,14,13.70
2015,06,27,06,15,13.70
2015,06,27,06,16,13.70
2015,06,27,06,17,13.70
2015,06,27,06,18,13.70
2015,06,27,06,19,13.70
2015,06,27,06,20,13.80
2015,06,27,06,21,13.80
2015,06,27,06,22,13.80
2015,06,27,06,23,13.90
2015,06,27,06,24,13.90
2015,06,27,06,25,13.90
2015,06,27,06,26,14.00
2015,06,27,06,27,14.00
2015,06,27,06,28,14.00
2015,06,27,06,29,14.10
2015,06,27,06,30,14.10
2015,06,27,06,31,14.20
2015,06,27,06,32,14.20
2015,06,27,06,33,14.20
2015,06,27,06,34,14.20
2015,06,27,06,35,14.30
2015,06,27,06,36,14.40
2015,06,27,06,37,14.50
2015,06,27,06,38,14.50
2015,06,27,06,39,14.60
2015,06,27,06,40,14.70
2015,06,27,06,41,14.80
2015,06,27,06,42,14.80
2015,06,27,06,43,14.90
2015,06,27,06,44,15.00
2015,06,27,06,45,15.10
2015,06,27,06,46,15.10
2015,06,27,06,47,15.20
2015,06,27,06,48,15.20
2015,06,27,06,49,15.30
2015,06,27,06,50,15.20
2015,06,27,06,51,15.20
2015,06,27,06,52,15.30
2015,06,27,06,53,15.30
2015,06,27,06,54,15.30
2015,06,27,06,55,15.30
2015,06,27,06,56,15.30
2015,06,27,06,57,15.40
2015,06,27,06,58,15.40
2015,06,27,06,59,15.50
2015,06,27,07,00,15.50
2015,06,27,07,01,15.60
2015,06,27,07,02,15.60
2015,06,27,07,03,15.70
2015,06,27,07,04,15.80
2015,06,27,07,05,15.80
2015,06,27,07,06,15.80
2015,06,27,07,07,15.80
2015,06,27,07,08,15.90
2015,06,27,07,09,16.00
2015,06,27,07,10,16.10
2015,06,27,07,11,16.10
2015,06,27,07,12,16.10
2015,06,27,07,13,16.10
2015,06,27,07,14,16.20
2015,06,27,07,15,16.30
2015,06,27,07,16,16.30
2015,06,27,07,17,16.40
2015,06,27,07,18,16.40
2015,06,27,07,19,16.50
2015,06,27,07,20,16.60
2015,06,27,07,21,16.70
2015,06,27,07,22,16.80
2015,06,27,07,23,16.90
2015,06,27,07,24,17.00
2015,06,27,07,25,17.10
2015,06,27,07,26,17.20
2015,06,27,07,27,17.30
2015,06,27,07,28,17.40
2015,06,27,07,29,17.50
2015,06,27,07,30,17.60
2015,06,27,07,31,17.70
2015,06,27,07,32,17.90
2015,06,27,07,33,17.90
2015,06,27,07,34,18.00
2015,06,27,07,35,18.10
2015,06,27,07,36,18.20
2015,06,27,07,37,18.20
2015,06,27,07,38,18.30
2015,06,27,07,39,18.30
2015,06,27,07,40,18.40
2015,06,27,07,41,18.50
2015,06,27,07,42,18.60
2015,06,27,07,43,18.60
2015,06,27,07,44,18.70
2015,06,27,07,45,18.80
2015,06,27,07,46,18.90
2015,06,27,07,47,18.90
2015,06,27,07,48,18.90
2015,06,27,07,49,18.90
2015,06,27,07,50,18.90
2015,06,27,07,51,19.00
2015,06,27,07,52,19.10
2015,06,27,07,53,19.10
2015,06,27,07,54,19.10
2015,06,27,07,55,19.20
2015,06,27,07,56,19.20
2015,06,27,07,57,19.20
2015,06,27,07,58,19.20
2015,06,27,07,59,19.10
2015,06,27,08,00,19.10
2015,06,27,08,01,19.00
2015,06,27,08,02,18.90
2015,06,27,08,03,18.90
2015,06,27,08,04,18.70
2015,06,27,08,05,18.60
2015,06,27,08,06,18.50
2015,06,27,08,07,18.30
2015,06,27,08,08,18.20
2015,06,27,08,09,18.20
2015,06,27,08,10,18.10
2015,06,27,08,11,18.00
2015,06,27,08,12,17.90
2015,06,27,08,13,17.90
2015,06,27,08,14,17.80
2015,06,27,08,15,17.70
2015,06,27,08,16,17.60
2015,06,27,08,17,17.40
2015,06,27,08,18,17.10
2015,06,27,08,19,16.90
2015,06,27,08,20,16.70
2015,06,27,08,21,16.50
2015,06,27,08,22,16.20
2015,06,27,08,23,16.00
2015,06,27,08,24,15.80
2015,06,27,08,25,15.70
2015,06,27,08,26,15.60
2015,06,27,08,27,15.70
2015,06,27,08,28,15.70
2015,06,27,08,29,15.80
2015,06,27,08,30,16.00
2015,06,27,08,31,16.10
2015,06,27,08,32,16.20
2015,06,27,08,33,16.30
2015,06,27,08,34,16.40
2015,06,27,08,35,16.40
2015,06,27,08,36,16.60
2015,06,27,08,37,16.70
2015,06,27,08,38,16.70
2015,06,27,08,39,16.80
2015,06,27,08,40,16.90
2015,06,27,08,41,16.90
2015,06,27,08,42,17.00
2015,06,27,08,43,17.10
2015,06,27,08,44,17.20
2015,06,27,08,45,17.30
2015,06,27,08,46,17.50
2015,06,27,08,47,17.70
2015,06,27,08,48,17.80
2015,06,27,08,49,18.00
2015,06,27,08,50,18.20
2015,06,27,08,51,18.40
2015,06,27,08,52,18.50
2015,06,27,08,53,18.70
2015,06,27,08,54,18.90
2015,06,27,08,55,19.10
2015,06,27,08,56,19.20
2015,06,27,08,57,19.40
2015,06,27,08,58,19.50
2015,06,27,08,59,19.70
2015,06,27,09,00,19.80
2015,06,27,09,01,20.00
2015,06,27,09,02,20.10
2015,06,27,09,03,20.20
2015,06,27,09,04,20.40
2015,06,27,09,05,20.50
2015,06,27,09,06,20.60
2015,06,27,09,07,20.70
2015,06,27,09,08,20.80
2015,06,27,09,09,20.90
2015,06,27,09,10,20.90
2015,06,27,09,11,21.00
2015,06,27,09,12,21.00
2015,06,27,09,13,21.10
2015,06,27,09,14,21.10
2015,06,27,09,15,21.00
2015,06,27,09,16,21.00
2015,06,27,09,17,21.00
2015,06,27,09,18,21.00
2015,06,27,09,19,21.00
2015,06,27,09,20,20.90
2015,06,27,09,21,20.80
2015,06,27,09,22,20.80
2015,06,27,09,23,20.70
2015,06,27,09,24,20.60
2015,06,27,09,25,20.60
2015,06,27,09,26,20.60
2015,06,27,09,27,20.50
2015,06,27,09,28,20.50
2015,06,27,09,29,20.50
2015,06,27,09,30,20.50
2015,06,27,09,31,20.40
2015,06,27,09,32,20.40
2015,06,27,09,33,20.30
2015,06,27,09,34,20.30
2015,06,27,09,35,20.20
2015,06,27,09,36,19.90
2015,06,27,09,37,19.40
2015,06,27,09,38,19.00
2015,06,27,09,39,18.60
2015,06,27,09,40,18.30
2015,06,27,09,41,17.90
2015,06,27,09,42,17.50
2015,06,27,09,43,17.00
2015,06,27,09,44,16.50
2015,06,27,09,45,16.00
2015,06,27,09,46,15.40
2015,06,27,09,47,15.10
2015,06,27,09,48,14.90
2015,06,27,09,49,14.70
2015,06,27,09,50,14.50
2015,06,27,09,51,14.50
2015,06,27,09,52,14.60
2015,06,27,09,53,14.60
2015,06,27,09,54,14.80
2015,06,27,09,55,15.00
2015,06,27,09,56,15.10
2015,06,27,09,57,15.30
2015,06,27,09,58,15.50
2015,06,27,09,59,15.40
2015,06,27,10,00,15.50
2015,06,27,10,01,15.50
2015,06,27,10,02,15.50
2015,06,27,10,03,15.50
2015,06,27,10,04,15.50
2015,06,27,10,05,15.50
2015,06,27,10,06,15.50
2015,06,27,10,07,15.60
2015,06,27,10,08,15.80
2015,06,27,10,09,15.90
2015,06,27,10,10,16.10
2015,06,27,10,11,16.20
2015,06,27,10,12,16.40
2015,06,27,10,13,16.50
2015,06,27,10,14,16.60
2015,06,27,10,15,16.70
2015,06,27,10,16,16.90
2015,06,27,10,17,17.10
2015,06,27,10,18,17.20
2015,06,27,10,19,17.40
2015,06,27,10,20,17.50
2015,06,27,10,21,17.70
2015,06,27,10,22,17.90
2015,06,27,10,23,18.10
2015,06,27,10,24,18.20
2015,06,27,10,25,18.40
2015,06,27,10,26,18.60
2015,06,27,10,27,18.70
2015,06,27,10,28,18.90
2015,06,27,10,29,19.10
2015,06,27,10,30,19.30
2015,06,27,10,31,19.50
2015,06,27,10,32,19.60
2015,06,27,10,33,19.80
2015,06,27,10,34,19.90
2015,06,27,10,35,20.10
2015,06,27,10,36,20.30
2015,06,27,10,37,20.50
2015,06,27,10,38,20.80
2015,06,27,10,39,20.90
2015,06,27,10,40,21.10
2015,06,27,10,41,21.30
2015,06,27,10,42,21.50
2015,06,27,10,43,21.60
2015,06,27,10,44,21.70
2015,06,27,10,45,21.90
2015,06,27,10,46,21.90
2015,06,27,10,47,22.00
2015,06,27,10,48,22.10
2015,06,27,10,49,22.20
2015,06,27,10,50,22.30
2015,06,27,10,51,22.50
2015,06,27,10,52,22.70
2015,06,27,10,53,22.70
2015,06,27,10,54,22.90
2015,06,27,10,55,22.90
2015,06,27,10,56,22.90
2015,06,27,10,57,23.00
2015,06,27,10,58,23.10
2015,06,27,10,59,23.20
2015,06,27,11,00,23.20
2015,06,27,11,01,23.20
2015,06,27,11,02,23.30
2015,06,27,11,03,23.30
2015,06,27,11,04,23.30
2015,06,27,11,05,23.30
2015,06,27,11,06,23.30
2015,06,27,11,07,23.30
2015,06,27,11,08,23.40
2015,06,27,11,09,23.50
2015,06,27,11,10,23.60
2015,06,27,11,11,23.60
2015,06,27,11,12,23.60
2015,06,27,11,13,23.70
2015,06,27,11,14,23.70
2015,06,27,11,15,23.70
2015,06,27,11,16,23.70
2015,06,27,11,17,23.70
2015,06,27,11,18,23.70
2015,06,27,11,19,23.70
2015,06,27,11,20,23.70
2015,06,27,11,21,23.70
2015,06,27,11,22,23.80
2015,06,27,11,23,23.80
2015,06,27,11,24,23.80
2015,06,27,11,25,23.90
2015,06,27,11,26,23.90
2015,06,27,11,27,23.90
2015,06,27,11,28,23.90
2015,06,27,11,29,23.90
2015,06,27,11,30,23.90
2015,06,27,11,31,23.90
2015,06,27,11,32,24.00
2015,06,27,11,33,24.10
2015,06,27,11,34,24.10
2015,06,27,11,35,24.10
2015,06,27,11,36,24.10
2015,06,27,11,37,24.20
2015,06,27,11,38,24.30
2015,06,27,11,39,24.40
2015,06,27,11,40,24.40
2015,06,27,11,41,24.50
2015,06,27,11,42,24.50
2015,06,27,11,43,24.50
2015,06,27,11,44,24.60
2015,06,27,11,45,24.60
2015,06,27,11,46,24.70
2015,06,27,11,47,24.80
2015,06,27,11,48,24.80
2015,06,27,11,49,24.90
2015,06,27,11,50,24.90
2015,06,27,11,51,24.90
2015,06,27,11,52,24.90
2015,06,27,11,53,24.90
2015,06,27,11,54,25.00
2015,06,27,11,55,25.00
2015,06,27,11,56,25.00
2015,06,27,11,57,25.10
2015,06,27,11,58,25.10
2015,06,27,11,59,25.20
2015,06,27,12,00,25.20
2015,06,27,12,01,25.20
2015,06,27,12,02,25.30
2015,06,27,12,03,25.30
2015,06,27,12,04,25.30
2015,06,27,12,05,25.30
2015,06,27,12,06,25.30
2015,06,27,12,07,25.30
2015,06,27,12,08,25.30
2015,06,27,12,09,25.30
2015,06,27,12,10,25.30
2015,06,27,12,11,25.30
2015,06,27,12,12,25.30
2015,06,27,12,13,25.30
2015,06,27,12,14,25.30
2015,06,27,12,15,25.30
2015,06,27,12,16,25.40
2015,06,27,12,17,25.40
2015,06,27,12,18,25.50
2015,06,27,12,19,25.50
2015,06,27,12,20,25.60
2015,06,27,12,21,25.60
2015,06,27,12,22,25.60
2015,06,27,12,23,25.60
2015,06,27,12,24,25.60
2015,06,27,12,25,25.60
2015,06,27,12,26,25.60
2015,06,27,12,27,25.30
2015,06,27,12,28,25.00
2015,06,27,12,29,24.90
2015,06,27,12,30,24.80
2015,06,27,12,31,24.40
2015,06,27,12,32,24.20
2015,06,27,12,33,24.20
2015,06,27,12,34,24.30
2015,06,27,12,35,24.50
2015,06,27,12,36,24.60
2015,06,27,12,37,24.60
2015,06,27,12,38,24.30
2015,06,27,12,39,24.00
2015,06,27,12,40,23.70
2015,06,27,12,41,23.40
2015,06,27,12,42,23.10
2015,06,27,12,43,22.90
2015,06,27,12,44,22.80
2015,06,27,12,45,22.80
2015,06,27,12,46,22.90
2015,06,27,12,47,23.10
2015,06,27,12,48,23.20
2015,06,27,12,49,23.20
2015,06,27,12,50,23.00
2015,06,27,12,51,22.90
2015,06,27,12,52,22.80
2015,06,27,12,53,22.60
2015,06,27,12,54,22.10
2015,06,27,12,55,21.70
2015,06,27,12,56,21.60
2015,06,27,12,57,21.60
2015,06,27,12,58,21.60
2015,06,27,12,59,21.70
2015,06,27,13,00,21.80
2015,06,27,13,01,21.70
2015,06,27,13,02,21.70
2015,06,27,13,03,21.80
2015,06,27,13,04,21.70
2015,06,27,13,05,21.80
2015,06,27,13,06,21.80
2015,06,27,13,07,21.80
2015,06,27,13,08,21.80
2015,06,27,13,09,21.90
2015,06,27,13,10,21.90
2015,06,27,13,11,22.00
2015,06,27,13,12,22.00
2015,06,27,13,13,22.00
2015,06,27,13,14,22.10
2015,06,27,13,15,22.00
2015,06,27,13,16,21.90
2015,06,27,13,17,22.00
2015,06,27,13,18,21.90
2015,06,27,13,19,22.00
2015,06,27,13,20,22.10
2015,06,27,13,21,22.10
2015,06,27,13,22,22.20
2015,06,27,13,23,22.30
2015,06,27,13,24,22.40
2015,06,27,13,25,22.50
2015,06,27,13,26,22.60
2015,06,27,13,27,22.60
2015,06,27,13,28,22.60
2015,06,27,13,29,22.70
2015,06,27,13,30,22.80
2015,06,27,13,31,23.00
2015,06,27,13,32,23.00
2015,06,27,13,33,22.90
2015,06,27,13,34,22.80
2015,06,27,13,35,22.80
2015,06,27,13,36,22.70
2015,06,27,13,37,22.60
2015,06,27,13,38,22.50
2015,06,27,13,39,22.50
2015,06,27,13,40,22.30
2015,06,27,13,41,22.30
2015,06,27,13,42,22.30
2015,06,27,13,43,22.40
2015,06,27,13,44,22.40
2015,06,27,13,45,22.30
2015,06,27,13,46,22.30
2015,06,27,13,47,22.30
2015,06,27,13,48,22.20
2015,06,27,13,49,22.10
2015,06,27,13,50,22.00
2015,06,27,13,51,22.10
2015,06,27,13,52,22.10
2015,06,27,13,53,22.20
2015,06,27,13,54,22.30
2015,06,27,13,55,22.40
2015,06,27,13,56,22.40
2015,06,27,13,57,22.60
2015,06,27,13,58,22.70
2015,06,27,13,59,22.80
2015,06,27,14,00,22.80
2015,06,27,14,01,22.80
2015,06,27,14,02,22.70
2015,06,27,14,03,22.70
2015,06,27,14,04,22.80
2015,06,27,14,05,22.90
2015,06,27,14,06,22.90
2015,06,27,14,07,23.00
2015,06,27,14,08,23.10
2015,06,27,14,09,23.20
2015,06,27,14,10,23.30
2015,06,27,14,11,23.40
2015,06,27,14,12,23.60
2015,06,27,14,13,23.80
2015,06,27,14,14,23.90
2015,06,27,14,15,24.10
2015,06,27,14,16,24.10
2015,06,27,14,17,24.10
2015,06,27,14,18,24.20
2015,06,27,14,19,24.40
2015,06,27,14,20,24.50
2015,06,27,14,21,24.50
2015,06,27,14,22,24.60
2015,06,27,14,23,24.50
2015,06,27,14,24,24.40
2015,06,27,14,25,24.40
2015,06,27,14,26,24.30
2015,06,27,14,27,24.30
2015,06,27,14,28,24.20
2015,06,27,14,29,24.30
2015,06,27,14,30,24.40
2015,06,27,14,31,24.50
2015,06,27,14,32,24.50
2015,06,27,14,33,24.50
2015,06,27,14,34,24.50
2015,06,27,14,35,24.60
2015,06,27,14,36,24.70
2015,06,27,14,37,24.80
2015,06,27,14,38,25.00
2015,06,27,14,39,25.00
2015,06,27,14,40,25.10
2015,06,27,14,41,25.20
2015,06,27,14,42,25.30
2015,06,27,14,43,25.30
2015,06,27,14,44,25.20
2015,06,27,14,45,25.10
2015,06,27,14,46,25.00
2015,06,27,14,47,25.00
2015,06,27,14,48,24.80
2015,06,27,14,49,24.60
2015,06,27,14,50,24.40
2015,06,27,14,51,24.20
2015,06,27,14,52,24.10
2015,06,27,14,53,24.10
2015,06,27,14,54,24.10
2015,06,27,14,55,24.10
2015,06,27,14,56,24.20
2015,06,27,14,57,24.40
2015,06,27,14,58,24.70
2015,06,27,14,59,24.90
2015,06,27,15,00,25.10
2015,06,27,15,01,25.20
2015,06,27,15,02,25.30
2015,06,27,15,03,25.40
2015,06,27,15,04,25.40
2015,06,27,15,05,25.40
2015,06,27,15,06,25.40
2015,06,27,15,07,25.30
2015,06,27,15,08,25.20
2015,06,27,15,09,25.10
2015,06,27,15,10,25.10
2015,06,27,15,11,25.30
2015,06,27,15,12,25.30
2015,06,27,15,13,25.40
2015,06,27,15,14,25.40
2015,06,27,15,15,25.50
2015,06,27,15,16,25.60
2015,06,27,15,17,25.70
2015,06,27,15,18,25.70
2015,06,27,15,19,25.70
2015,06,27,15,20,25.70
2015,06,27,15,21,25.70
2015,06,27,15,22,25.40
2015,06,27,15,23,25.10
2015,06,27,15,24,24.90
2015,06,27,15,25,24.70
2015,06,27,15,26,24.50
2015,06,27,15,27,24.50
2015,06,27,15,28,24.40
2015,06,27,15,29,24.50
2015,06,27,15,30,24.60
2015,06,27,15,31,24.70
2015,06,27,15,32,24.80
2015,06,27,15,33,24.90
2015,06,27,15,34,25.00
2015,06,27,15,35,25.10
2015,06,27,15,36,25.30
2015,06,27,15,37,25.50
2015,06,27,15,38,25.60
2015,06,27,15,39,25.80
2015,06,27,15,40,26.00
2015,06,27,15,41,26.20
2015,06,27,15,42,26.30
2015,06,27,15,43,26.50
2015,06,27,15,44,26.60
2015,06,27,15,45,26.60
2015,06,27,15,46,26.60
2015,06,27,15,47,26.60
2015,06,27,15,48,26.60
2015,06,27,15,49,26.60
2015,06,27,15,50,26.70
2015,06,27,15,51,26.80
2015,06,27,15,52,26.90
2015,06,27,15,53,27.00
2015,06,27,15,54,27.10
2015,06,27,15,55,27.10
2015,06,27,15,56,27.20
2015,06,27,15,57,27.30
2015,06,27,15,58,27.30
2015,06,27,15,59,27.40
2015,06,27,16,00,27.50
2015,06,27,16,01,27.60
2015,06,27,16,02,27.50
2015,06,27,16,03,27.40
2015,06,27,16,04,27.30
2015,06,27,16,05,27.30
2015,06,27,16,06,27.20
2015,06,27,16,07,27.00
2015,06,27,16,08,26.80
2015,06,27,16,09,26.80
2015,06,27,16,10,26.80
2015,06,27,16,11,26.80
2015,06,27,16,12,26.70
2015,06,27,16,13,26.60
2015,06,27,16,14,26.50
2015,06,27,16,15,26.30
2015,06,27,16,16,26.20
2015,06,27,16,17,26.00
2015,06,27,16,18,26.00
2015,06,27,16,19,25.90
2015,06,27,16,20,25.90
2015,06,27,16,21,25.90
2015,06,27,16,22,25.80
2015,06,27,16,23,25.70
2015,06,27,16,24,25.60
2015,06,27,16,25,25.50
2015,06,27,16,26,25.40
2015,06,27,16,27,25.30
2015,06,27,16,28,25.20
2015,06,27,16,29,25.20
2015,06,27,16,30,25.20
2015,06,27,16,31,25.10
2015,06,27,16,32,24.90
2015,06,27,16,33,24.90
2015,06,27,16,34,24.90
2015,06,27,16,35,24.90
2015,06,27,16,36,24.90
2015,06,27,16,37,25.00
2015,06,27,16,38,25.10
2015,06,27,16,39,25.30
2015,06,27,16,40,25.30
2015,06,27,16,41,25.30
2015,06,27,16,42,25.20
2015,06,27,16,43,25.00
2015,06,27,16,44,24.70
2015,06,27,16,45,24.50
2015,06,27,16,46,24.30
2015,06,27,16,47,24.00
2015,06,27,16,48,23.90
2015,06,27,16,49,23.80
2015,06,27,16,50,23.90
2015,06,27,16,51,24.00
2015,06,27,16,52,24.20
2015,06,27,16,53,24.20
2015,06,27,16,54,24.30
2015,06,27,16,55,24.40
2015,06,27,16,56,24.50
2015,06,27,16,57,24.60
2015,06,27,16,58,24.70
2015,06,27,16,59,24.80
2015,06,27,17,00,24.70
2015,06,27,17,01,24.50
2015,06,27,17,02,24.30
2015,06,27,17,03,24.10
2015,06,27,17,04,24.00
2015,06,27,17,05,23.90
2015,06,27,17,06,23.90
2015,06,27,17,07,23.90
2015,06,27,17,08,23.90
2015,06,27,17,09,23.90
2015,06,27,17,10,23.80
2015,06,27,17,11,23.70
2015,06,27,17,12,23.70
2015,06,27,17,13,23.70
2015,06,27,17,14,23.70
2015,06,27,17,15,23.80
2015,06,27,17,16,23.80
2015,06,27,17,17,23.80
2015,06,27,17,18,23.70
2015,06,27,17,19,23.80